Location: Crescent
(42.8242°N, 73.7329°W)
Time: 06:43:02
(UTC+00:00)

Vanguard 3 - Pass Details

Date: 18 November 2024
Orbit: 507 x 3221 km, 33.4° (Epoch: 04 December)

Event Time Altitude Azimuth Distance (km) Brightness Sun altitude
Rises 22:24:40 0° 277° (W) 6,097 13.0 -10.4°
Reaches altitude 10° 22:30:41 10° 263° (W) 4,532 12.4 -11.4°
Maximum altitude 22:37:58 19° 225° (SW) 3,095 10.9 -12.7°
Drops below altitude 10° 22:43:16 10° 183° (S) 3,131 10.4 -13.6°
Sets 22:46:27 0° 165° (SSE) 3,712 10.5 -14.2°
